STARLINK-33625, 63327

Orbit data source: Space-Track

STARLINK-33625, 63327 is a payload satellite owned by SpaceX/Seattle (US) in LEO that was launched on Tue, 18 Mar 2025 UTC via an FALCON 9 launch vehicle from the Air Force Eastern Test Range (AFETR). Payload-class satellites include a variety of spacecraft equipped with specific instruments for various scientific and technological missions. These include communications satellites like Starlink; space stations such as the ISS; scientific satellites like the Hubble; Earth observation satellites from companies like Planet Labs, Umbra, and HawkEye 360; GPS; miniature CubeSats for education and research; and military/defense satellites.

Loading next visibility...
Identifier
63327, 2025-057W
Orbit
LEO
Last TLE update
1 day ago
Origin
Manufacturer
SpaceX/Seattle
Mission
Operational Commercial Communications
Bus & Motor
STARLINK V2MO, Unknown motor
Mass
575 kg wet, ~530 kg dry
Launch date (UTC)
2025-03-18 (2 months ago)
Launch vehicle
FALCON 9
Launch site
Air Force Eastern Test Range (AFETR)
Object type
Payload
Rocket body
Debris
Shape & HBR
Box + 1 Pan, 29 m
Radar Cross Section
41.120 m², Large (>1 m²)

Expand to show TLE details & history

TLE from 1 day ago
0 STARLINK-33625
1 63327U 25057W   25128.22511317  .00004162  00000-0  10694-3 0  9996
2 63327  43.0013 314.8280 0001371 248.4978 111.5732 15.40673983  9076
Epoch: 2025-05-08T05:24Z
Definitive object data (Epoch: 2025-05-08T05:24:09.777Z)
Latitude
-0.00007°
Longitude
7.48853°
Altitude
444.237 km
Speed
7.647 km/s
True Right ascension
20h 59m 18s
True Declination
0° 00' 00"
Sunlit
Object was in daylight at TLE epoch
Visualization TLE readout
Latitude
40.91862°
Longitude
69.00076°
Altitude
447.679 km
Speed
7.649 km/s
Apparent Right ascension
01h 54m 09s
Apparent Declination
2° 12' 12"
Sunlit
Object is in daylight
Visualization observer readout
Local Sidereal Time
14:45:39
Azimuth
18.787° NNE
Elevation
-46.26°
Doppler factor
1
Orbital elements
Apogee altitude
447.011 km
Perigee altitude
445.139 km
Semi-major axis
6,824.212 km
Eccentricity
0.0001371
Inclination
43.0013°
RAAN
314.828°
Arg. of periapsis
248.4978°
True anomaly
111.58781°
Mean anomaly
111.5732°
Eccentric anomaly
111.5805°
Mean motion
3.85003 °/min
BSTAR
0.00010694
Orbital period
93.51 mins
Loading maneuver chart data...
Loading SW <> Apogee altitude chart data...
Loading historical data...
Loading historical data...
Loading historical data...
Loading historical data...
Loading historical data...
Loading historical data...
Loading historical data...

STARLINK-33625 Visibility forecast

Observer location: undefined°, undefined°

Span
Click to sort rows by Start time (UTC) header in descending order
Start Az.
Max El. time (UTC)
Max El. Az.
Max El.
End time (UTC)
End Az.
5 mins2025-05-09 15:52:48.050Z224.075° SW2025-05-09 15:54:48.050Z127.367° SE38.849°2025-05-09 15:57:48.050Z76.842° E
5 mins2025-05-09 17:30:48.050Z284.502° WNW2025-05-09 17:32:48.050Z10.07° NNE38.475°2025-05-09 17:35:48.050Z70.642° E
5 mins2025-05-09 19:08:48.050Z295.753° NW2025-05-09 19:10:48.050Z0.565° NNE40.635°2025-05-09 19:13:48.050Z89.58° E
5 mins2025-05-09 20:46:48.050Z271.505° WNW2025-05-09 20:48:48.050Z214.903° SW34.534°2025-05-09 20:51:48.050Z137.017° SSE
|